sat.trackr.live / text

‹ back to catalog

STARLINK-32728

NORAD 62948 · 2025-029A

PAYLOAD ACTIVE UNKNOWN

§ Identity

Operator
Country
US
Launch date
2025-02-11
Launch site
AFWTR
Launch vehicle
Mass (kg)
RCS (m²)

Purposes: comms

External: N2YO · Heavens-Above · Gunter

§ Orbital elements

Epoch: 2026-09-21T17:47:39.532128Z

Period
93.85 min
Inclination
53.1569°
Eccentricity
0.0000838
Mean motion
15.34403897 rev/d
Perigee alt
462.1 km
Apogee alt
463.3 km
Semi-major
6,840.8 km
B*
5.4735e-4
RAAN
36.1701°
Arg perigee
97.3808°
Mean anomaly
262.7290°
Rev number
9,145

§ Raw data

STARLINK-327281 62948U 25029A   26264.74142977  .00018164  00000+0  54735-3 0  99942 62948  53.1569  36.1701 0000838  97.3808 262.7290 15.34403897 91453

JSON: /api/v1/satellites/62948 · /tle

For live sub-satellite position, see the globe view (requires WebGL).

§ Visibility from observer

Set your observer location to see the next 7 days of passes ≥ 10°. The values pass through the URL so the page stays shareable.

No JS? Fill the form by hand. The geolocation button needs JavaScript.